INTELSAT 10 (IS-10)

Last updated on Oct. 23, 2020, 5:56 a.m. UTC

1 26766U 01019A   20296.77219483  .00000111  00000-0  00000-0 0  9991
2 26766   4.1776  78.0585 0003524 138.0268 141.0834  1.00270473 24921
UTC
Height (km)
Latitude
Longitude
Inclination
Orbital Period
UTC large
Height (km)
Speed (km/s)
/
Latitude / Longitude
Inclination (degrees)
Orbital Period (minutes)
Azimuth
Elevation
Range (km)
Doppler Factor
iOS Compass Heading
iOS Angle

Next 30 passes for location: Hong Kong

Rise time Rise Azimuth (degrees) Set time Set Azimuth (degrees) Duration Max altitude (degrees)

No matching passes for this satellites